User: anonymous   Login
Location: Unspecified
(0.0000°N, 0.0000°E)
Time: 19:39:37
(UTC+02:00)
Language:

NATO 3D Rocket - Orbit

View from above orbital plane
View from above orbital plane
View from above satellite
View from above satellite

Ground track
Ground track

The orbit data is extracted from the following two-line orbital elements,

1 15392U 84115B   16143.67548829 +.00000144 +00000-0 -21130-5 0  9995
2 15392 021.4913 295.5778 1034565 073.0674 298.0428 12.45528279417499
Epoch (UTC): 22 May 2016 16:12:42
Eccentricity: 0.1034565
inclination: 21.4913°
perigee height: 670 km
apogee height: 2296 km
right ascension of ascending node: 295.5778°
argument of perigee: 73.0674°
revolutions per day: 12.45528279
mean anomaly at epoch: 298.0428°
orbit number at epoch: 41749

The dashed part of the orbit path shows where the satellite is in the earth's shadow,  

DLR